Time,TemperatureF,DewpointF,PressureIn,WindDirection,WindDirectionDegrees,WindSpeedMPH,WindSpeedGustMPH,Humidity,HourlyPrecipIn,Conditions,Clouds,dailyrainin,SoftwareType,DateUTC
2013-03-09 00:11:00,45.2,36.0,30.11,South,187,13.0,17.0,70,0.00,,,0.04,weatherlink.com 1.10,2013-03-09 06:11:00,
2013-03-09 00:26:00,43.9,37.0,30.10,SSE,158,10.0,20.0,78,0.01,,,0.05,weatherlink.com 1.10,2013-03-09 06:26:00,
2013-03-09 00:41:00,42.9,37.0,30.10,SSE,148,12.0,23.0,81,0.03,,,0.07,weatherlink.com 1.10,2013-03-09 06:41:00,
2013-03-09 00:56:00,42.4,38.0,30.09,SSE,157,10.0,15.0,83,0.04,,,0.08,weatherlink.com 1.10,2013-03-09 06:56:00,
2013-03-09 01:11:00,42.9,38.0,30.10,SSE,153,12.0,15.0,82,0.04,,,0.08,weatherlink.com 1.10,2013-03-09 07:11:00,
2013-03-09 01:26:00,43.3,38.0,30.09,SSE,159,6.0,16.0,80,0.03,,,0.08,weatherlink.com 1.10,2013-03-09 07:26:00,
2013-03-09 01:41:00,43.8,37.0,30.09,SSE,163,10.0,17.0,78,0.01,,,0.08,weatherlink.com 1.10,2013-03-09 07:41:00,
2013-03-09 01:57:00,43.7,38.0,30.09,SSE,165,13.0,21.0,80,0.01,,,0.09,weatherlink.com 1.10,2013-03-09 07:57:00,
2013-03-09 02:12:00,42.2,38.0,30.08,SSE,155,6.0,18.0,86,0.05,,,0.13,weatherlink.com 1.10,2013-03-09 08:12:00,
2013-03-09 02:27:00,42.8,38.0,30.07,West,260,10.0,18.0,84,0.05,,,0.13,weatherlink.com 1.10,2013-03-09 08:27:00,
2013-03-09 02:42:00,43.0,39.0,30.06,SSE,160,12.0,21.0,84,0.05,,,0.13,weatherlink.com 1.10,2013-03-09 08:42:00,
2013-03-09 02:57:00,43.2,38.0,30.04,SE,142,13.0,18.0,83,0.04,,,0.13,weatherlink.com 1.10,2013-03-09 08:57:00,
2013-03-09 03:12:00,43.7,38.0,30.04,South,180,8.0,20.0,80,0.00,,,0.13,weatherlink.com 1.10,2013-03-09 09:12:00,
2013-03-09 03:27:00,43.7,38.0,30.04,SSE,156,9.0,18.0,79,0.00,,,0.00,weatherlink.com 1.10,2013-03-09 09:27:00,
2013-03-09 03:42:00,43.8,37.0,30.03,SE,130,12.0,18.0,78,0.00,,,0.00,weatherlink.com 1.10,2013-03-09 09:42:00,
2013-03-09 03:57:00,44.2,37.0,30.03,South,172,12.0,20.0,75,0.00,,,0.00,weatherlink.com 1.10,2013-03-09 09:57:00,
2013-03-09 04:12:00,44.3,37.0,30.03,SSE,163,18.0,20.0,75,0.00,,,0.00,weatherlink.com 1.10,2013-03-09 10:12:00,
2013-03-09 04:27:00,44.4,37.0,30.02,SSE,155,8.0,17.0,74,0.00,,,0.00,weatherlink.com 1.10,2013-03-09 10:27:00,
2013-03-09 04:42:00,44.6,36.0,30.03,SSE,154,10.0,16.0,73,0.00,,,0.00,weatherlink.com 1.10,2013-03-09 10:42:00,
2013-03-09 04:57:00,44.7,37.0,30.02,SSW,201,8.0,15.0,73,0.00,,,0.00,weatherlink.com 1.10,2013-03-09 10:57:00,
2013-03-09 05:12:00,44.9,37.0,30.02,SSE,158,5.0,14.0,73,0.00,,,0.00,weatherlink.com 1.10,2013-03-09 11:12:00,
2013-03-09 05:27:00,44.3,38.0,30.02,SSE,163,8.0,17.0,77,0.00,,,0.00,weatherlink.com 1.10,2013-03-09 11:27:00,
2013-03-09 05:42:00,44.4,37.0,30.02,SSE,163,10.0,15.0,76,0.01,,,0.01,weatherlink.com 1.10,2013-03-09 11:42:00,
2013-03-09 05:57:00,45.0,38.0,30.02,SE,130,7.0,15.0,75,0.01,,,0.01,weatherlink.com 1.10,2013-03-09 11:57:00,
2013-03-09 06:12:00,45.1,37.0,30.01,SSW,201,6.0,16.0,74,0.01,,,0.01,weatherlink.com 1.10,2013-03-09 12:12:00,
2013-03-09 06:27:00,45.1,37.0,30.01,South,184,8.0,19.0,74,0.01,,,0.01,weatherlink.com 1.10,2013-03-09 12:27:00,
2013-03-09 06:42:00,45.4,37.0,30.01,SSE,154,11.0,16.0,73,0.00,,,0.01,weatherlink.com 1.10,2013-03-09 12:42:00,
2013-03-09 06:57:00,45.5,37.0,30.01,South,176,4.0,16.0,73,0.00,,,0.01,weatherlink.com 1.10,2013-03-09 12:57:00,
2013-03-09 07:12:00,45.4,37.0,30.01,SSE,167,12.0,18.0,72,0.00,,,0.01,weatherlink.com 1.10,2013-03-09 13:12:00,
2013-03-09 07:27:00,46.1,37.0,30.01,SSE,159,9.0,16.0,71,0.00,,,0.01,weatherlink.com 1.10,2013-03-09 13:27:00,
2013-03-09 07:42:00,46.6,37.0,30.00,South,170,7.0,15.0,70,0.00,,,0.01,weatherlink.com 1.10,2013-03-09 13:42:00,
2013-03-09 07:57:00,47.1,37.0,30.00,SSE,147,15.0,16.0,68,0.00,,,0.01,weatherlink.com 1.10,2013-03-09 13:57:00,
2013-03-09 08:12:00,48.7,39.0,30.00,South,189,9.0,19.0,68,0.00,,,0.01,weatherlink.com 1.10,2013-03-09 14:12:00,
2013-03-09 08:27:00,49.8,38.0,30.00,South,175,9.0,18.0,64,0.00,,,0.01,weatherlink.com 1.10,2013-03-09 14:27:00,
2013-03-09 08:42:00,49.4,38.0,30.00,SSE,153,13.0,15.0,64,0.00,,,0.01,weatherlink.com 1.10,2013-03-09 14:42:00,
2013-03-09 08:57:00,51.0,39.0,29.99,South,170,11.0,13.0,64,0.00,,,0.01,weatherlink.com 1.10,2013-03-09 14:57:00,
2013-03-09 09:13:00,52.5,40.0,29.99,SSE,161,8.0,14.0,62,0.00,,,0.01,weatherlink.com 1.10,2013-03-09 15:13:00,
2013-03-09 09:28:00,54.2,39.0,29.98,SSE,164,8.0,19.0,58,0.00,,,0.01,weatherlink.com 1.10,2013-03-09 15:28:00,
2013-03-09 09:43:00,56.0,41.0,29.97,South,171,8.0,17.0,57,0.00,,,0.01,weatherlink.com 1.10,2013-03-09 15:43:00,
2013-03-09 09:58:00,57.0,39.0,29.96,SSE,161,10.0,18.0,52,0.00,,,0.01,weatherlink.com 1.10,2013-03-09 15:58:00,
2013-03-09 10:13:00,58.2,38.0,29.95,SE,138,10.0,19.0,48,0.00,,,0.01,weatherlink.com 1.10,2013-03-09 16:13:00,
2013-03-09 10:28:00,59.3,37.0,29.95,SSW,204,7.0,23.0,44,0.00,,,0.01,weatherlink.com 1.10,2013-03-09 16:28:00,
2013-03-09 10:43:00,60.7,39.0,29.94,SSW,192,13.0,22.0,45,0.00,,,0.01,weatherlink.com 1.10,2013-03-09 16:43:00,
2013-03-09 10:58:00,61.3,39.0,29.94,SSW,204,7.0,22.0,44,0.00,,,0.01,weatherlink.com 1.10,2013-03-09 16:58:00,
2013-03-09 11:13:00,62.0,39.0,29.93,South,171,15.0,18.0,43,0.00,,,0.01,weatherlink.com 1.10,2013-03-09 17:13:00,
2013-03-09 11:28:00,62.7,38.0,29.92,West,265,7.0,21.0,40,0.00,,,0.01,weatherlink.com 1.10,2013-03-09 17:28:00,
2013-03-09 11:43:00,64.2,39.0,29.91,SSW,192,13.0,22.0,40,0.00,,,0.01,weatherlink.com 1.10,2013-03-09 17:43:00,
2013-03-09 11:58:00,63.8,39.0,29.90,SSW,199,9.0,20.0,41,0.00,,,0.01,weatherlink.com 1.10,2013-03-09 17:58:00,
2013-03-09 12:13:00,64.3,41.0,29.90,SSE,165,7.0,33.0,43,0.00,,,0.01,weatherlink.com 1.10,2013-03-09 18:13:00,
2013-03-09 12:28:00,65.2,41.0,29.89,SE,135,5.0,21.0,42,0.00,,,0.01,weatherlink.com 1.10,2013-03-09 18:28:00,
2013-03-09 12:43:00,64.1,42.0,29.88,South,175,10.0,21.0,45,0.00,,,0.01,weatherlink.com 1.10,2013-03-09 18:43:00,
2013-03-09 12:58:00,65.8,43.0,29.86,South,171,13.0,22.0,43,0.00,,,0.01,weatherlink.com 1.10,2013-03-09 18:58:00,
2013-03-09 13:13:00,66.7,44.0,29.85,SSW,192,11.0,22.0,44,0.00,,,0.01,weatherlink.com 1.10,2013-03-09 19:13:00,
2013-03-09 13:28:00,66.7,43.0,29.83,SSE,155,8.0,23.0,43,0.00,,,0.01,weatherlink.com 1.10,2013-03-09 19:28:00,
2013-03-09 13:43:00,67.1,44.0,29.82,South,184,9.0,23.0,44,0.00,,,0.01,weatherlink.com 1.10,2013-03-09 19:43:00,
2013-03-09 13:59:00,66.2,47.0,29.80,SSE,165,12.0,19.0,50,0.00,,,0.01,weatherlink.com 1.10,2013-03-09 19:59:00,
2013-03-09 14:14:00,66.5,47.0,29.80,SE,146,14.0,24.0,50,0.00,,,0.01,weatherlink.com 1.10,2013-03-09 20:14:00,
2013-03-09 14:29:00,69.2,49.0,29.80,SSW,199,8.0,26.0,48,0.00,,,0.01,weatherlink.com 1.10,2013-03-09 20:29:00,
2013-03-09 14:44:00,67.8,49.0,29.80,SSW,206,14.0,20.0,51,0.00,,,0.01,weatherlink.com 1.10,2013-03-09 20:44:00,
2013-03-09 14:59:00,66.4,48.0,29.79,SSE,163,6.0,22.0,52,0.00,,,0.01,weatherlink.com 1.10,2013-03-09 20:59:00,
2013-03-09 15:14:00,67.5,49.0,29.80,South,175,21.0,27.0,52,0.00,,,0.01,weatherlink.com 1.10,2013-03-09 21:14:00,
2013-03-09 15:29:00,66.1,49.0,29.79,SSE,157,20.0,22.0,55,0.00,,,0.01,weatherlink.com 1.10,2013-03-09 21:29:00,
2013-03-09 15:44:00,65.6,49.0,29.79,South,188,14.0,25.0,56,0.00,,,0.01,weatherlink.com 1.10,2013-03-09 21:44:00,
2013-03-09 15:59:00,65.4,49.0,29.79,SSE,155,8.0,21.0,56,0.00,,,0.01,weatherlink.com 1.10,2013-03-09 21:59:00,
2013-03-09 16:14:00,64.9,50.0,29.79,South,180,10.0,18.0,58,0.00,,,0.01,weatherlink.com 1.10,2013-03-09 22:14:00,
2013-03-09 16:29:00,64.2,49.0,29.79,SSW,194,6.0,22.0,59,0.00,,,0.01,weatherlink.com 1.10,2013-03-09 22:29:00,
2013-03-09 16:44:00,63.9,50.0,29.78,SSW,197,7.0,22.0,60,0.00,,,0.01,weatherlink.com 1.10,2013-03-09 22:44:00,
2013-03-09 16:59:00,63.5,50.0,29.77,SSE,158,10.0,27.0,62,0.00,,,0.01,weatherlink.com 1.10,2013-03-09 22:59:00,
2013-03-09 17:14:00,62.8,51.0,29.78,South,188,9.0,20.0,66,0.00,,,0.01,weatherlink.com 1.10,2013-03-09 23:14:00,
2013-03-09 17:29:00,62.4,52.0,29.78,South,170,7.0,21.0,68,0.00,,,0.01,weatherlink.com 1.10,2013-03-09 23:29:00,
2013-03-09 17:44:00,60.7,53.0,29.78,SW,228,7.0,17.0,75,0.00,,,0.01,weatherlink.com 1.10,2013-03-09 23:44:00,
2013-03-09 17:59:00,59.1,53.0,29.78,SSE,165,5.0,12.0,80,0.00,,,0.01,weatherlink.com 1.10,2013-03-09 23:59:00,
2013-03-09 18:14:00,59.0,53.0,29.77,SSE,165,7.0,12.0,79,0.00,,,0.01,weatherlink.com 1.10,2013-03-10 00:14:00,
2013-03-09 18:29:00,59.6,52.0,29.77,SSE,155,7.0,13.0,76,0.00,,,0.01,weatherlink.com 1.10,2013-03-10 00:29:00,
2013-03-09 18:44:00,59.6,51.0,29.76,SSE,148,9.0,14.0,74,0.00,,,0.01,weatherlink.com 1.10,2013-03-10 00:44:00,
2013-03-09 18:59:00,59.6,51.0,29.75,East,101,5.0,12.0,74,0.00,,,0.01,weatherlink.com 1.10,2013-03-10 00:59:00,
2013-03-09 19:14:00,59.7,51.0,29.75,SE,144,5.0,14.0,73,0.00,,,0.01,weatherlink.com 1.10,2013-03-10 01:14:00,
2013-03-09 19:29:00,58.0,52.0,29.75,SE,134,5.0,12.0,79,0.01,,,0.02,weatherlink.com 1.10,2013-03-10 01:29:00,
2013-03-09 19:44:00,56.9,52.0,29.76,SE,144,2.0,5.0,83,0.02,,,0.03,weatherlink.com 1.10,2013-03-10 01:44:00,
2013-03-09 19:59:00,56.9,51.0,29.76,SE,136,6.0,12.0,81,0.04,,,0.05,weatherlink.com 1.10,2013-03-10 01:59:00,
2013-03-09 20:14:00,56.2,51.0,29.77,South,177,4.0,14.0,82,0.11,,,0.12,weatherlink.com 1.10,2013-03-10 02:14:00,
2013-03-09 20:29:00,55.1,51.0,29.76,SSE,147,14.0,16.0,86,0.14,,,0.16,weatherlink.com 1.10,2013-03-10 02:29:00,
2013-03-09 20:44:00,55.2,51.0,29.77,South,171,6.0,12.0,85,0.13,,,0.16,weatherlink.com 1.10,2013-03-10 02:44:00,
2013-03-09 20:59:00,54.8,51.0,29.79,SSW,204,2.0,10.0,87,0.15,,,0.20,weatherlink.com 1.10,2013-03-10 02:59:00,
2013-03-09 21:14:00,54.7,51.0,29.79,WSW,253,2.0,4.0,88,0.08,,,0.20,weatherlink.com 1.10,2013-03-10 03:14:00,
2013-03-09 21:29:00,55.0,52.0,29.78,WSW,244,3.0,4.0,88,0.08,,,0.24,weatherlink.com 1.10,2013-03-10 03:29:00,
2013-03-09 21:44:00,54.4,51.0,29.77,SE,146,3.0,5.0,89,0.08,,,0.24,weatherlink.com 1.10,2013-03-10 03:44:00,
2013-03-09 21:59:00,53.5,51.0,29.75,SE,142,5.0,7.0,92,0.05,,,0.25,weatherlink.com 1.10,2013-03-10 03:59:00,
2013-03-09 22:14:00,53.6,51.0,29.75,SE,132,5.0,8.0,92,0.05,,,0.25,weatherlink.com 1.10,2013-03-10 04:14:00,
2013-03-09 22:29:00,53.7,52.0,29.74,ESE,114,7.0,7.0,93,0.04,,,0.28,weatherlink.com 1.10,2013-03-10 04:29:00,
2013-03-09 22:44:00,54.9,52.0,29.74,SSE,160,7.0,11.0,91,0.04,,,0.28,weatherlink.com 1.10,2013-03-10 04:44:00,
2013-03-09 22:59:00,56.5,53.0,29.75,South,183,4.0,12.0,88,0.03,,,0.28,weatherlink.com 1.10,2013-03-10 04:59:00,
2013-03-09 23:14:00,56.2,53.0,29.76,SSW,210,3.0,11.0,90,0.11,,,0.36,weatherlink.com 1.10,2013-03-10 05:14:00,
2013-03-09 23:29:00,55.2,53.0,29.75,SSE,161,6.0,9.0,92,0.15,,,0.43,weatherlink.com 1.10,2013-03-10 05:29:00,
2013-03-09 23:44:00,55.0,53.0,29.74,SSE,161,6.0,14.0,94,0.20,,,0.48,weatherlink.com 1.10,2013-03-10 05:44:00,
2013-03-09 23:59:00,55.0,53.0,29.74,SE,130,10.0,12.0,94,0.23,,,0.51,weatherlink.com 1.10,2013-03-10 05:59:00,